Location: Bijele Vode
(45.2833°N, 16.2000°E)
Time: 12:12:34
(UTC+00:00)

DELFI C3 - Pass Details

Date: 01 December 2021
Orbit: 526 x 543 km, 97.4° (Epoch: 22 January)

Event Time Altitude Azimuth Distance (km) Brightness Sun altitude
Rises 05:30:38 0° 36° (NE) 2,725 ? -7.6°
Reaches altitude 10° 05:35:02 10° 83° (E) 1,819 ? -6.9°
Maximum altitude 05:35:23 10° 88° (E) 1,812 ? -6.9°
Drops below altitude 10° 05:35:45 10° 93° (E) 1,817 ? -6.8°
Sets 05:40:06 0° 140° (SE) 2,696 ? -6.1°
